Weather History for Big Delta, AK

Change the Weather History Date:

Tuesday, January 15, 2013

  Actual Average Record
Temperature  
Mean Temperature 16 °F -  
Max Temperature 33 °F 5 °F 46 °F (2009)
Min Temperature 0 °F -3 °F -43 °F (2012)
Degree Days  
Heating Degree Days 48    
Moisture  
Dew Point 14 °F    
Average Humidity 85    
Maximum Humidity 93    
Minimum Humidity 72    
Precipitation  
Precipitation 0.00 in - - ()
Sea Level Pressure  
Sea Level Pressure 30.10 in    
Wind  
Wind Speed 13 mph (NW)    
Max Wind Speed 23 mph    
Max Gust Speed 32 mph    
Visibility 5 miles    
Events Snow    
Averages and records for this station are not official NWS values.
T = Trace of Precipitation, MM = Missing Value Source: NWS Daily Summary

Daily Weather History Graph

Daily Weather History Graph

Search for Another Location

Airport:

Trip Planner

Search our weather history database for the weather conditions in past years. The results will help you decide how hot, cold, wet, or windy it might be!

Date:

Astronomy

Jan. 15, 2013 Rise Set
Actual Time 10:07 AM AKST 3:38 PM AKST
Civil Twilight 9:00 AM AKST 4:44 PM AKST
Nautical Twilight 7:57 AM AKST 5:48 PM AKST
Astronomical Twilight 6:59 AM AKST 6:46 PM AKST
Moon 10:15 AM AKST (1/15) 10:52 PM AKST (1/15)
Length of Visible Light 7h 44m
Length of Day
5h 31m
Waxing Crescent, 20% of the Moon is Illuminated
Jan 15
Waxing Crescent
Jan 18
First Quarter
Jan 26
Full
Feb 3
Last Quarter
Feb 9
New

Hourly Weather History & Observations

Time (AKST) Temp. Windchill Dew Point Humidity Pressure Visibility Wind Dir Wind Speed Gust Speed Precip Events Conditions
12:11 AM 30.2 °F 18.1 °F 26.6 °F 86% 29.80 in 1.5 mi NW 18.4 mph 29.9 mph 0.00 in Snow Light Snow
12:27 AM 30.2 °F 17.8 °F 26.6 °F 86% 29.82 in 1.0 mi NNW 19.6 mph 27.6 mph 0.00 in Snow Light Snow
12:43 AM 28.4 °F 15.8 °F 24.8 °F 86% 29.84 in 2.0 mi NW 18.4 mph 32.2 mph 0.00 in Snow Light Snow
12:53 AM 28.0 °F 14.9 °F 25.0 °F 88% 29.90 in 4.0 mi NW 19.6 mph - 0.00 in Snow Light Snow
1:07 AM 28.4 °F 15.4 °F 24.8 °F 86% 29.85 in 1.8 mi NNW 19.6 mph 26.5 mph 0.00 in Snow Light Snow
1:21 AM 26.6 °F 13.1 °F 24.8 °F 93% 29.87 in 2.0 mi NW 19.6 mph 26.5 mph 0.00 in Snow Light Snow
1:30 AM 26.6 °F 12.0 °F 23.0 °F 86% 29.88 in 1.5 mi NW 23.0 mph 29.9 mph 0.00 in Snow Light Snow
1:53 AM 26.1 °F 14.0 °F 24.1 °F 92% 29.96 in 1.2 mi NNW 15.0 mph 21.9 mph 0.00 in Snow Light Snow
2:01 AM 26.6 °F 14.7 °F 23.0 °F 86% 29.90 in 3.0 mi NW 15.0 mph - 0.00 in Snow Light Snow
2:19 AM 26.6 °F 14.7 °F 21.2 °F 80% 29.91 in 2.5 mi NW 15.0 mph - 0.00 in Snow Light Snow
2:27 AM 26.6 °F 16.8 °F 21.2 °F 80% 29.92 in 3.0 mi NNW 10.4 mph 20.7 mph 0.00 in Snow Light Snow
2:34 AM 26.6 °F 15.2 °F 21.2 °F 80% 29.93 in 2.5 mi NW 13.8 mph - 0.00 in Snow Light Snow
2:51 AM 24.8 °F 14.6 °F 21.2 °F 86% 29.93 in 4.0 mi NW 10.4 mph - 0.00 in Snow Light Snow
2:52 AM 25.0 °F 14.2 °F 21.9 °F 88% 30.01 in 4.0 mi NW 11.5 mph - 0.00 in Snow Light Snow
3:33 AM 24.8 °F 11.5 °F 21.2 °F 86% 29.96 in 1.8 mi NNW 17.3 mph - 0.00 in Snow Light Snow
3:49 AM 23.0 °F 10.6 °F 19.4 °F 86% 29.96 in 3.0 mi North 13.8 mph - 0.00 in Snow Light Snow
3:50 AM 23.0 °F 10.6 °F 19.9 °F 88% 30.04 in 3.0 mi NNW 13.8 mph - 0.00 in Snow Light Snow
4:09 AM 21.2 °F 7.8 °F 17.6 °F 86% 29.98 in 2.0 mi NNW 15.0 mph 24.2 mph 0.00 in Snow Light Snow
4:37 AM 21.2 °F 6.8 °F 17.6 °F 86% 29.99 in 2.5 mi NW 17.3 mph 23.0 mph 0.00 in Snow Light Snow
4:53 AM 21.0 °F 9.9 °F 17.1 °F 85% 30.09 in 2.0 mi NW 10.4 mph - 0.00 in Snow Light Snow
5:29 AM 19.4 °F 6.0 °F 15.8 °F 86% 30.03 in 1.5 mi NW 13.8 mph - 0.00 in Snow Light Snow
5:45 AM 19.4 °F 7.9 °F 15.8 °F 86% 30.03 in 1.2 mi NW 10.4 mph - 0.00 in Snow Light Snow
5:53 AM 19.0 °F 8.2 °F 16.0 °F 88% 30.13 in 1.2 mi NW 9.2 mph - 0.00 in Snow Light Snow
6:03 AM 19.4 °F 6.0 °F 14.0 °F 80% 30.04 in 2.5 mi NW 13.8 mph - 0.00 in Snow Light Snow
6:11 AM 19.4 °F 7.2 °F 14.0 °F 80% 30.05 in 3.0 mi NW 11.5 mph - 0.00 in Snow Light Snow
6:53 AM 17.1 °F 5.0 °F 12.9 °F 84% 30.14 in 6.0 mi WNW 10.4 mph - 0.00 in Snow Light Snow
7:49 AM 15.8 °F 6.1 °F 10.4 °F 79% 30.08 in 6.0 mi WNW 6.9 mph - 0.00 in Snow Light Snow
7:53 AM 16.0 °F 6.3 °F 10.9 °F 81% 30.17 in 6.0 mi WNW 6.9 mph - 0.00 in Snow Light Snow
8:18 AM 15.8 °F 8.6 °F 12.2 °F 86% 30.09 in 7.0 mi WSW 4.6 mph - 0.00 in Snow Light Snow
8:53 AM 15.1 °F 6.4 °F 10.9 °F 84% 30.18 in 4.0 mi WNW 5.8 mph - 0.00 in Snow Light Snow
9:24 AM 14.0 °F 6.5 °F 10.4 °F 86% 30.10 in 6.0 mi West 4.6 mph - 0.00 in Snow Light Snow
9:53 AM 14.0 °F 6.5 °F 10.0 °F 84% 30.21 in 5.0 mi West 4.6 mph - 0.00 in Snow Light Snow
10:00 AM 14.0 °F 6.5 °F 10.4 °F 86% 30.12 in 5.0 mi WSW 4.6 mph - 0.00 in Snow Light Snow
10:53 AM 14.0 °F 6.5 °F 10.0 °F 84% 30.24 in 9.0 mi SSW 4.6 mph - 0.00 in Snow Light Snow
11:53 AM 14.0 °F - 10.0 °F 84% 30.25 in 9.0 mi Calm Calm - 0.00 in   Mostly Cloudy
12:53 PM 12.9 °F 5.2 °F 9.0 °F 84% 30.28 in 10.0 mi South 4.6 mph - N/A   Mostly Cloudy
1:53 PM 14.0 °F 6.5 °F 10.0 °F 84% 30.28 in 10.0 mi South 4.6 mph - N/A   Overcast
2:53 PM 15.1 °F 5.2 °F 10.0 °F 80% 30.29 in 10.0 mi South 6.9 mph - N/A   Overcast
3:53 PM 12.9 °F - 9.0 °F 84% 30.30 in 10.0 mi Calm Calm - N/A   Overcast
4:53 PM 12.0 °F 5.9 °F 10.0 °F 92% 30.31 in 10.0 mi East 3.5 mph - N/A   Overcast
5:53 PM 10.9 °F -0.8 °F 8.1 °F 88% 30.32 in 10.0 mi SE 8.1 mph - N/A   Overcast
6:53 PM 9.0 °F -0.9 °F 6.1 °F 88% 30.33 in 10.0 mi ESE 5.8 mph - N/A   Scattered Clouds
7:53 PM 5.0 °F -4.1 °F 1.9 °F 87% 30.34 in 10.0 mi SSW 4.6 mph - N/A   Partly Cloudy
8:53 PM -0.0 °F - -4.0 °F 83% 30.35 in 10.0 mi Calm Calm - N/A   Partly Cloudy
9:53 PM 1.9 °F - -0.9 °F 88% 30.35 in 10.0 mi Calm Calm - N/A   Clear
10:53 PM 3.9 °F - 1.0 °F 88% 30.34 in 10.0 mi Calm Calm - N/A   Clear
11:53 PM -0.0 °F -7.9 °F -4.0 °F 83% 30.35 in 10.0 mi SE 3.5 mph - N/A   Clear